Powrót do katalogu

DELTA 1 DEB

AktywnySSO
NORAD 7060·DEBRIS·🇺🇸 United States

Wystrzelony Nov 6, 1973 z Vandenberg Space Force Base

Loading…

Następne Przeloty (najbliższe 24 godziny)

TLE

ŚwieżeSource: Space-Track

Epoka: Sep 14, 2026, 00:26 UTC

1 07060U 73086BC  26257.01827765 -.00000010  00000-0  25396-3 0  9995
2 07060 102.1390 281.1912 0022990 301.3252  85.7321 12.44947988400357

Śledź DELTA 1 DEB w czasie rzeczywistym z AllMySat

Download on the App Store